DW5080 Weather Reports


time (UTC)temp
C
wind
direction
speed
KPH
gust
KPH
rain 1hr
cm
rain 24hr
cm
rain mn
cm
humidity
%
barometer
mb
20260504110413 6 182 3.2 11.3 0.00 0.00 0.00 64 1010.2
20260504100113 6 174 0.0 1.6 0.00 0.00 0.00 64 1009.9
20260504080413 7 207 4.8 11.3 0.00 0.00 0.00 61 1010.2
20260504070113 7 219 3.2 16.1 0.00 0.00 0.00 58 1010.0
20260504050414 8 226 6.4 12.9 0.00 0.00 0.00 56 1010.0
20260504045513 8 223 6.4 14.5 0.00 0.00 0.00 55 1010.1
20260504043713 8 216 3.2 11.3 0.00 0.00 0.00 56 1010.1
20260504042813 7 220 3.2 8.0 0.00 0.00 0.00 57 1010.0
20260504041013 7 0 0.0 1.6 0.00 0.00 0.00 60 1010.0
20260504040113 7 0 0.0 1.6 0.00 0.00 0.00 60 1010.1
20260504035213 7 0 0.0 1.6 0.00 0.00 0.00 59 1010.1
20260504034313 7 0 0.0 0.0 0.00 0.00 0.00 59 1010.1
20260504033413 7 0 0.0 1.6 0.00 0.00 0.00 59 1010.0
20260504032513 7 0 0.0 1.6 0.00 0.00 0.00 60 1010.2
20260504031613 7 0 0.0 1.6 0.00 0.00 0.00 59 1010.2
20260504030713 7 0 0.0 0.0 0.00 0.00 0.00 59 1010.2
20260504025813 7 0 0.0 0.0 0.00 0.00 0.00 59 1010.1
20260504024913 8 0 0.0 1.6 0.00 0.00 0.00 58 1010.1
20260504024013 8 0 0.0 0.0 0.00 0.00 0.00 57 1010.2
20260504023113 8 0 0.0 0.0 0.00 0.00 0.00 57 1010.3
20260504022213 8 0 0.0 1.6 0.00 0.00 0.00 57 1010.3
20260504020413 8 0 0.0 0.0 0.00 0.00 0.00 57 1010.3
20260504015513 8 0 0.0 0.0 0.00 0.00 0.00 56 1010.2
20260504014613 8 0 0.0 0.0 0.00 0.00 0.00 56 1010.1
20260504012813 8 0 0.0 0.0 0.00 0.00 0.00 55 1010.1
20260504011913 9 0 0.0 1.6 0.00 0.00 0.00 54 1010.1
20260504011013 10 253 0.0 1.6 0.00 0.00 0.00 52 1010.0
20260504005213 10 236 3.2 11.3 0.00 0.00 0.00 51 1009.7
20260504004313 10 236 1.6 22.5 0.00 0.00 0.00 51 1009.7
20260504003413 10 224 3.2 8.0 0.00 0.00 0.00 52 1009.6
20260504002513 10 227 1.6 8.0 0.00 0.00 0.00 52 1009.5
20260504001613 9 225 1.6 6.4 0.00 0.00 0.00 53 1009.3
20260504000713 9 0 0.0 4.8 0.00 0.00 0.00 53 1009.3
20260503235813 9 215 1.6 4.8 0.00 0.00 0.00 53 1009.3
20260503234913 10 230 1.6 8.0 0.00 0.00 0.00 52 1009.1
20260503234013 10 223 0.0 4.8 0.00 0.00 0.00 52 1009.1
20260503233113 10 224 0.0 4.8 0.00 0.00 0.00 52 1009.2
20260503232213 10 0 0.0 4.8 0.00 0.00 0.00 52 1009.2
20260503231313 10 0 0.0 4.8 0.00 0.00 0.00 52 1009.1
20260503225513 10 224 1.6 8.0 0.00 0.00 0.00 51 1009.0
20260503224613 10 236 0.0 6.4 0.00 0.00 0.00 51 1009.2
20260503223713 10 248 1.6 4.8 0.00 0.00 0.00 50 1009.2
20260503222813 11 291 1.6 9.7 0.00 0.00 0.00 49 1009.3
20260503221913 11 247 1.6 6.4 0.00 0.00 0.00 49 1009.3
20260503221013 11 297 1.6 8.0 0.00 0.00 0.00 50 1009.5
20260503220113 10 274 3.2 8.0 0.00 0.00 0.00 51 1009.4
20260503215213 10 281 3.2 12.9 0.00 0.00 0.00 51 1009.4
20260503214313 11 305 3.2 12.9 0.00 0.00 0.00 50 1009.4
20260503212513 11 305 3.2 12.9 0.00 0.00 0.00 51 1009.3
20260503211613 11 262 4.8 24.1 0.00 0.00 0.00 52 1009.4
20260503205813 10 312 4.8 19.3 0.00 0.00 0.00 49 1009.3
20260503204013 11 305 6.4 19.3 0.00 0.00 0.00 48 1009.2
20260503203113 11 310 4.8 33.8 0.00 0.00 0.00 47 1009.2
20260503202213 11 310 4.8 19.3 0.00 0.00 0.00 45 1009.0
20260503201313 11 307 6.4 25.7 0.00 0.00 0.00 44 1009.2
20260503200413 11 315 4.8 27.4 0.00 0.00 0.00 43 1009.1
20260503195513 11 266 3.2 11.3 0.00 0.00 0.00 43 1009.2
20260503194613 11 259 3.2 14.5 0.00 0.00 0.00 45 1009.4
20260503193713 11 250 4.8 11.3 0.00 0.00 0.00 43 1009.6
20260503192813 11 238 3.2 17.7 0.00 0.00 0.00 42 1009.6
20260503191913 12 237 3.2 11.3 0.00 0.00 0.00 45 1009.6
20260503191013 11 283 4.8 11.3 0.00 0.00 0.00 45 1009.7
20260503190113 11 298 4.8 20.9 0.00 0.00 0.00 43 1009.8
20260503185213 11 289 4.8 19.3 0.00 0.00 0.00 47 1009.9
20260503184313 11 310 3.2 19.3 0.00 0.00 0.00 41 1010.0
20260503183413 11 291 4.8 9.7 0.00 0.00 0.00 45 1010.2
20260503182513 10 317 4.8 16.1 0.00 0.00 0.00 45 1010.2
20260503180713 10 269 4.8 17.7 0.00 0.00 0.00 43 1010.4
20260503175813 10 289 3.2 17.7 0.00 0.00 0.00 47 1010.4
20260503174913 10 291 4.8 17.7 0.00 0.00 0.00 48 1010.6
20260503174013 10 323 6.4 22.5 0.00 0.00 0.00 45 1010.7
20260503173113 10 282 4.8 16.1 0.00 0.00 0.00 45 1010.8
20260503171313 10 301 3.2 20.9 0.00 0.00 0.00 45 1011.0
20260503170413 10 263 4.8 11.3 0.00 0.00 0.00 47 1011.1
20260503160113 7 295 3.2 14.5 0.00 0.00 0.00 47 1011.6
20260503150713 7 303 4.8 22.5 0.00 0.00 0.00 51 1011.8
20260503130113 4 288 3.2 11.3 0.00 0.00 0.00 66 1012.0